Location: Colossi of Memnon
(25.7167°N, 32.6167°E)
Time: 19:18:07
(UTC+00:00)

N. Korean satellite - Pass Details

Date: 21 September 2021
Orbit: 450 x 495 km, 97.3° (Epoch: 16 October)

Event Time Altitude Azimuth Distance (km) Brightness Sun altitude
Rises 02:20:12 0° 28° (NNE) 2,517 10.8 -18.2°
Reaches altitude 10° 02:22:32 10° 43° (NE) 1,646 10.0 -17.7°
Maximum altitude 02:25:25 23° 98° (E) 1,053 9.1 -17.0°
Drops below altitude 10° 02:28:19 10° 152° (SSE) 1,660 9.5 -16.4°
Sets 02:30:41 0° 167° (SSE) 2,544 10.3 -15.9°
